Location: Central Falls
(41.8900°N, 71.3929°W)
Time: 11:46:12
(UTC+00:00)

Tiros 1 despin weight - Pass Details

Date: 08 December 2023
Orbit: 581 x 625 km, 48.2° (Epoch: 20 February)

Event Time Altitude Azimuth Distance (km) Brightness Sun altitude
Rises 02:02:37 0° 296° (WNW) 2,798 - -52.6°
Reaches altitude 10° 02:04:56 10° 301° (WNW) 1,897 - -53.0°
Maximum altitude 02:09:11 52° 18° (NNE) 729 - -53.7°
Drops below altitude 10° 02:13:25 10° 96° (E) 1,901 - -54.4°
Sets 02:15:45 0° 101° (E) 2,804 - -54.8°
